Time,TemperatureF,DewpointF,PressureIn,WindDirection,WindDirectionDegrees,WindSpeedMPH,WindSpeedGustMPH,Humidity,HourlyPrecipIn,Conditions,Clouds,dailyrainin,SoftwareType,DateUTC
2013-05-29 00:04:00,71.0,69.2,29.81,ESE,108,1.0,3.0,94,0.00,RA,,0.00,WeatherDisplay:10.37,2013-05-29 05:04:00,
2013-05-29 00:09:00,71.0,69.5,29.82,ESE,108,1.0,4.0,95,0.00,RA,,0.00,WeatherDisplay:10.37,2013-05-29 05:09:00,
2013-05-29 00:14:00,70.8,69.3,29.82,ESE,108,1.0,4.0,95,0.00,OVC,,0.00,WeatherDisplay:10.37,2013-05-29 05:14:00,
2013-05-29 00:19:00,70.8,69.3,29.82,ESE,108,2.0,5.0,95,0.00,OVC,,0.00,WeatherDisplay:10.37,2013-05-29 05:19:00,
2013-05-29 00:24:00,70.8,69.3,29.82,ESE,108,0.0,5.0,95,0.00,OVC,,0.00,WeatherDisplay:10.37,2013-05-29 05:24:00,
2013-05-29 00:29:00,70.8,69.3,29.82,ESE,108,2.0,4.0,95,0.00,OVC,,0.00,WeatherDisplay:10.37,2013-05-29 05:29:00,
2013-05-29 00:34:00,70.8,69.3,29.82,East,84,2.0,10.0,95,0.00,OVC,,0.00,WeatherDisplay:10.37,2013-05-29 05:34:00,
2013-05-29 00:39:00,70.6,69.1,29.82,ENE,69,2.0,6.0,95,0.00,OVC,,0.00,WeatherDisplay:10.37,2013-05-29 05:39:00,
2013-05-29 00:44:00,70.2,68.4,29.82,ENE,61,2.0,8.0,94,0.00,OVC,,0.00,WeatherDisplay:10.37,2013-05-29 05:44:00,
2013-05-29 00:49:00,70.0,67.9,29.83,NE,55,3.0,8.0,93,0.00,OVC,,0.00,WeatherDisplay:10.37,2013-05-29 05:49:00,
2013-05-29 00:59:00,69.6,67.2,29.82,ENE,58,2.0,8.0,92,0.00,OVC,,0.00,WeatherDisplay:10.37,2013-05-29 05:59:00,
2013-05-29 01:04:00,69.3,66.6,29.82,NE,56,2.0,9.0,91,0.00,OVC,,0.00,WeatherDisplay:10.37,2013-05-29 06:04:00,
2013-05-29 01:09:00,69.1,66.0,29.82,ENE,59,5.0,10.0,90,0.00,OVC,,0.00,WeatherDisplay:10.37,2013-05-29 06:09:00,
2013-05-29 01:14:00,69.0,65.9,29.82,ENE,57,5.0,10.0,90,0.00,OVC,,0.00,WeatherDisplay:10.37,2013-05-29 06:14:00,
2013-05-29 01:19:00,68.8,65.7,29.82,ENE,65,3.0,9.0,90,0.00,OVC,,0.00,WeatherDisplay:10.37,2013-05-29 06:19:00,
2013-05-29 01:24:00,68.8,65.7,29.82,ENE,68,6.0,13.0,90,0.00,OVC,,0.00,WeatherDisplay:10.37,2013-05-29 06:24:00,
2013-05-29 01:29:00,68.6,65.6,29.82,ENE,69,5.0,10.0,90,0.00,OVC,,0.00,WeatherDisplay:10.37,2013-05-29 06:29:00,
2013-05-29 01:39:00,68.5,65.1,29.81,ENE,71,6.0,15.0,89,0.00,OVC,,0.00,WeatherDisplay:10.37,2013-05-29 06:39:00,
2013-05-29 01:49:00,68.3,64.9,29.81,East,96,5.0,9.0,89,0.00,OVC,,0.00,WeatherDisplay:10.37,2013-05-29 06:49:00,
2013-05-29 01:59:00,68.3,65.3,29.81,East,86,5.0,10.0,90,0.00,OVC,,0.00,WeatherDisplay:10.37,2013-05-29 06:59:00,
2013-05-29 02:04:00,68.3,65.3,29.80,East,82,3.0,10.0,90,0.00,OVC,,0.00,WeatherDisplay:10.37,2013-05-29 07:04:00,
2013-05-29 02:09:00,68.3,65.3,29.80,East,87,5.0,13.0,90,0.00,OVC,,0.00,WeatherDisplay:10.37,2013-05-29 07:09:00,
2013-05-29 02:14:00,68.3,65.3,29.80,East,95,6.0,12.0,90,0.00,OVC,,0.00,WeatherDisplay:10.37,2013-05-29 07:14:00,
2013-05-29 02:19:00,68.3,65.3,29.80,East,96,5.0,10.0,90,0.00,OVC,,0.00,WeatherDisplay:10.37,2013-05-29 07:19:00,
2013-05-29 02:24:00,68.1,64.7,29.80,East,86,6.0,12.0,89,0.00,OVC,,0.00,WeatherDisplay:10.37,2013-05-29 07:24:00,
2013-05-29 02:29:00,68.1,64.7,29.79,East,85,5.0,14.0,89,0.00,OVC,,0.00,WeatherDisplay:10.37,2013-05-29 07:29:00,
2013-05-29 02:34:00,68.0,64.6,29.79,East,82,7.0,13.0,89,0.00,OVC,,0.00,WeatherDisplay:10.37,2013-05-29 07:34:00,
2013-05-29 02:39:00,68.0,64.6,29.79,East,86,5.0,10.0,89,0.00,OVC,,0.00,WeatherDisplay:10.37,2013-05-29 07:39:00,
2013-05-29 02:49:00,67.8,64.8,29.79,East,90,7.0,14.0,90,0.00,OVC,,0.00,WeatherDisplay:10.37,2013-05-29 07:49:00,
2013-05-29 02:54:00,67.8,64.8,29.79,East,89,7.0,12.0,90,0.00,OVC,,0.00,WeatherDisplay:10.37,2013-05-29 07:54:00,
2013-05-29 03:04:00,68.0,65.0,29.78,ENE,75,8.0,14.0,90,0.00,OVC,,0.00,WeatherDisplay:10.37,2013-05-29 08:04:00,
2013-05-29 03:09:00,68.1,65.4,29.78,East,79,5.0,9.0,91,0.00,OVC,,0.00,WeatherDisplay:10.37,2013-05-29 08:09:00,
2013-05-29 03:14:00,68.2,65.5,29.78,East,82,6.0,13.0,91,0.00,OVC,,0.00,WeatherDisplay:10.37,2013-05-29 08:14:00,
2013-05-29 03:19:00,68.3,65.6,29.78,ENE,69,3.0,10.0,91,0.00,OVC,,0.00,WeatherDisplay:10.37,2013-05-29 08:19:00,
2013-05-29 03:24:00,68.5,66.1,29.78,East,80,3.0,8.0,92,0.00,OVC,,0.00,WeatherDisplay:10.37,2013-05-29 08:24:00,
2013-05-29 03:29:00,68.5,66.1,29.78,East,80,2.0,9.0,92,0.00,OVC,,0.00,WeatherDisplay:10.37,2013-05-29 08:29:00,
2013-05-29 03:34:00,68.6,66.2,29.78,East,92,3.0,10.0,92,0.00,OVC,,0.00,WeatherDisplay:10.37,2013-05-29 08:34:00,
2013-05-29 03:39:00,68.8,66.4,29.78,East,100,5.0,12.0,92,0.00,OVC,,0.00,WeatherDisplay:10.37,2013-05-29 08:39:00,
2013-05-29 03:44:00,69.0,66.6,29.78,East,83,2.0,12.0,92,0.00,OVC,,0.00,WeatherDisplay:10.37,2013-05-29 08:44:00,
2013-05-29 03:49:00,69.3,66.9,29.78,East,93,6.0,10.0,92,0.00,OVC,,0.00,WeatherDisplay:10.37,2013-05-29 08:49:00,
2013-05-29 03:59:00,69.8,66.7,29.78,ESE,110,6.0,14.0,90,0.00,OVC,,0.00,WeatherDisplay:10.37,2013-05-29 08:59:00,
2013-05-29 04:04:00,70.0,66.9,29.77,SE,131,3.0,14.0,90,0.00,OVC,,0.00,WeatherDisplay:10.37,2013-05-29 09:04:00,
2013-05-29 04:09:00,70.2,66.5,29.77,SSE,151,5.0,10.0,88,0.00,OVC,,0.00,WeatherDisplay:10.37,2013-05-29 09:09:00,
2013-05-29 04:19:00,70.4,66.4,29.77,East,91,5.0,13.0,87,0.00,OVC,,0.00,WeatherDisplay:10.37,2013-05-29 09:19:00,
2013-05-29 04:24:00,70.6,66.5,29.77,East,79,5.0,12.0,87,0.00,OVC,,0.00,WeatherDisplay:10.37,2013-05-29 09:24:00,
2013-05-29 04:29:00,70.6,66.2,29.77,East,84,2.0,9.0,86,0.00,OVC,,0.00,WeatherDisplay:10.37,2013-05-29 09:29:00,
2013-05-29 04:39:00,70.8,66.4,29.77,ESE,105,3.0,16.0,86,0.00,OVC,,0.00,WeatherDisplay:10.37,2013-05-29 09:39:00,
2013-05-29 04:44:00,70.8,66.1,29.77,East,101,3.0,12.0,85,0.00,OVC,,0.00,WeatherDisplay:10.37,2013-05-29 09:44:00,
2013-05-29 04:49:00,70.8,66.1,29.77,ESE,102,6.0,13.0,85,0.00,OVC,,0.00,WeatherDisplay:10.37,2013-05-29 09:49:00,
2013-05-29 04:59:00,70.6,65.5,29.77,ESE,114,5.0,9.0,84,0.00,OVC,,0.00,WeatherDisplay:10.37,2013-05-29 09:59:00,
2013-05-29 05:04:00,70.6,65.9,29.77,ESE,121,5.0,12.0,85,0.00,OVC,,0.00,WeatherDisplay:10.37,2013-05-29 10:04:00,
2013-05-29 05:09:00,70.6,65.9,29.77,ESE,123,6.0,15.0,85,0.00,OVC,,0.00,WeatherDisplay:10.37,2013-05-29 10:09:00,
2013-05-29 05:19:00,70.6,65.5,29.77,SE,144,5.0,15.0,84,0.00,FEW,,0.00,WeatherDisplay:10.37,2013-05-29 10:19:00,
2013-05-29 05:24:00,70.6,65.5,29.77,SE,133,2.0,14.0,84,0.00,FEW,,0.00,WeatherDisplay:10.37,2013-05-29 10:24:00,
2013-05-29 05:29:00,70.6,65.9,29.77,ESE,115,5.0,14.0,85,0.00,FEW,,0.00,WeatherDisplay:10.37,2013-05-29 10:29:00,
2013-05-29 05:34:00,70.4,65.4,29.77,SE,138,3.0,10.0,84,0.00,FEW,,0.00,WeatherDisplay:10.37,2013-05-29 10:34:00,
2013-05-29 05:39:00,70.4,65.7,29.78,SSE,158,5.0,12.0,85,0.00,FEW,,0.00,WeatherDisplay:10.37,2013-05-29 10:39:00,
2013-05-29 05:44:00,70.4,65.7,29.78,SE,143,3.0,10.0,85,0.00,FEW,,0.00,WeatherDisplay:10.37,2013-05-29 10:44:00,
2013-05-29 05:54:00,70.4,65.7,29.78,SSE,154,5.0,10.0,85,0.00,FEW,,0.00,WeatherDisplay:10.37,2013-05-29 10:54:00,
2013-05-29 05:59:00,70.4,65.7,29.79,SSE,168,2.0,9.0,85,0.00,FEW,,0.00,WeatherDisplay:10.37,2013-05-29 10:59:00,
2013-05-29 06:04:00,70.4,65.7,29.79,SSE,165,3.0,10.0,85,0.00,OVC,,0.00,WeatherDisplay:10.37,2013-05-29 11:04:00,
2013-05-29 06:09:00,70.4,65.7,29.79,SE,142,5.0,15.0,85,0.00,OVC,,0.00,WeatherDisplay:10.37,2013-05-29 11:09:00,
2013-05-29 06:14:00,70.4,65.7,29.79,ESE,118,3.0,10.0,85,0.00,OVC,,0.00,WeatherDisplay:10.37,2013-05-29 11:14:00,
2013-05-29 06:24:00,70.3,65.6,29.79,SE,125,2.0,14.0,85,0.00,OVC,,0.00,WeatherDisplay:10.37,2013-05-29 11:24:00,
2013-05-29 06:29:00,70.3,65.6,29.79,SE,129,3.0,10.0,85,0.00,OVC,,0.00,WeatherDisplay:10.37,2013-05-29 11:29:00,
2013-05-29 06:34:00,70.1,65.4,29.79,SE,135,3.0,10.0,85,0.00,OVC,,0.00,WeatherDisplay:10.37,2013-05-29 11:34:00,
2013-05-29 06:39:00,70.1,65.4,29.79,SSE,158,5.0,12.0,85,0.00,OVC,,0.00,WeatherDisplay:10.37,2013-05-29 11:39:00,
2013-05-29 06:44:00,70.1,65.4,29.79,SSE,167,2.0,9.0,85,0.00,OVC,,0.00,WeatherDisplay:10.37,2013-05-29 11:44:00,
2013-05-29 06:54:00,70.1,65.4,29.79,SSE,154,3.0,13.0,85,0.00,OVC,,0.00,WeatherDisplay:10.37,2013-05-29 11:54:00,
2013-05-29 06:59:00,70.1,65.4,29.78,SSE,158,5.0,12.0,85,0.00,OVC,,0.00,WeatherDisplay:10.37,2013-05-29 11:59:00,
2013-05-29 07:04:00,70.1,65.4,29.79,SE,137,3.0,10.0,85,0.00,CLR,,0.00,WeatherDisplay:10.37,2013-05-29 12:04:00,
2013-05-29 07:14:00,70.0,65.6,29.79,SSE,151,2.0,10.0,86,0.00,CLR,,0.00,WeatherDisplay:10.37,2013-05-29 12:14:00,
2013-05-29 07:19:00,70.0,65.9,29.78,ESE,121,2.0,8.0,87,0.00,CLR,,0.00,WeatherDisplay:10.37,2013-05-29 12:19:00,
2013-05-29 07:24:00,70.0,65.9,29.78,SSE,148,6.0,14.0,87,0.00,CLR,,0.00,WeatherDisplay:10.37,2013-05-29 12:24:00,
2013-05-29 07:34:00,70.0,65.9,29.78,SSE,164,5.0,9.0,87,0.00,CLR,,0.00,WeatherDisplay:10.37,2013-05-29 12:34:00,
2013-05-29 07:39:00,70.0,65.9,29.78,SSE,164,5.0,10.0,87,0.00,CLR,,0.00,WeatherDisplay:10.37,2013-05-29 12:39:00,
2013-05-29 07:44:00,70.0,65.9,29.78,South,169,3.0,12.0,87,0.00,CLR,,0.00,WeatherDisplay:10.37,2013-05-29 12:44:00,
2013-05-29 07:54:00,69.9,65.9,29.78,SSE,164,5.0,12.0,87,0.00,CLR,,0.00,WeatherDisplay:10.37,2013-05-29 12:54:00,
2013-05-29 08:04:00,70.0,65.9,29.78,SSE,156,2.0,12.0,87,0.00,CLR,,0.00,WeatherDisplay:10.37,2013-05-29 13:04:00,
2013-05-29 08:14:00,70.0,66.3,29.78,South,184,3.0,12.0,88,0.00,CLR,,0.00,WeatherDisplay:10.37,2013-05-29 13:14:00,
2013-05-29 08:19:00,70.1,66.4,29.78,SSW,203,1.0,10.0,88,0.00,CLR,,0.00,WeatherDisplay:10.37,2013-05-29 13:19:00,
2013-05-29 08:24:00,70.4,66.4,29.79,ESE,120,3.0,9.0,87,0.00,CLR,,0.00,WeatherDisplay:10.37,2013-05-29 13:24:00,
2013-05-29 08:34:00,71.1,67.0,29.78,SSW,194,1.0,6.0,87,0.00,CLR,,0.00,WeatherDisplay:10.37,2013-05-29 13:34:00,
2013-05-29 08:39:00,71.6,67.9,29.79,SSE,165,3.0,8.0,88,0.00,CLR,,0.00,WeatherDisplay:10.37,2013-05-29 13:39:00,
2013-05-29 08:44:00,72.0,67.9,29.78,ESE,122,5.0,13.0,87,0.00,CLR,,0.00,WeatherDisplay:10.37,2013-05-29 13:44:00,
2013-05-29 08:54:00,72.8,68.0,29.79,SSE,165,5.0,14.0,85,0.00,CLR,,0.00,WeatherDisplay:10.37,2013-05-29 13:54:00,
2013-05-29 08:59:00,73.4,68.6,29.79,South,176,5.0,8.0,85,0.00,CLR,,0.00,WeatherDisplay:10.37,2013-05-29 13:59:00,
2013-05-29 09:04:00,74.0,68.9,29.79,SSE,167,5.0,13.0,84,0.00,SCT,,0.00,WeatherDisplay:10.37,2013-05-29 14:04:00,
2013-05-29 09:09:00,74.5,69.0,29.79,SSE,160,5.0,13.0,83,0.00,SCT,,0.00,WeatherDisplay:10.37,2013-05-29 14:09:00,
2013-05-29 09:19:00,75.2,68.9,29.78,SW,214,7.0,20.0,81,0.00,SCT,,0.00,WeatherDisplay:10.37,2013-05-29 14:19:00,
2013-05-29 09:29:00,75.8,69.1,29.78,SSW,203,3.0,15.0,80,0.00,SCT,,0.00,WeatherDisplay:10.37,2013-05-29 14:29:00,
2013-05-29 09:39:00,76.3,69.3,29.78,SW,222,2.0,16.0,79,0.00,SCT,,0.00,WeatherDisplay:10.37,2013-05-29 14:39:00,
2013-05-29 09:49:00,76.8,69.4,29.77,SSW,205,6.0,20.0,78,0.00,SCT,,0.00,WeatherDisplay:10.37,2013-05-29 14:49:00,
2013-05-29 09:59:00,77.2,69.4,29.76,SSW,193,9.0,19.0,77,0.00,SCT,,0.00,WeatherDisplay:10.37,2013-05-29 14:59:00,
2013-05-29 10:04:00,77.4,69.6,29.76,SSW,213,9.0,18.0,77,0.00,SCT,,0.00,WeatherDisplay:10.37,2013-05-29 15:04:00,
2013-05-29 10:09:00,77.5,69.7,29.76,SSW,209,2.0,14.0,77,0.00,SCT,,0.00,WeatherDisplay:10.37,2013-05-29 15:09:00,
2013-05-29 10:19:00,77.8,69.6,29.77,SSW,194,6.0,19.0,76,0.00,SCT,,0.00,WeatherDisplay:10.37,2013-05-29 15:19:00,
2013-05-29 10:24:00,78.1,69.9,29.76,SSW,202,9.0,25.0,76,0.00,SCT,,0.00,WeatherDisplay:10.37,2013-05-29 15:24:00,
2013-05-29 10:29:00,78.0,69.8,29.76,South,189,8.0,25.0,76,0.00,SCT,,0.00,WeatherDisplay:10.37,2013-05-29 15:29:00,
2013-05-29 10:39:00,78.1,70.3,29.77,SSW,210,6.0,9.0,77,0.00,SCT,,0.00,WeatherDisplay:10.37,2013-05-29 15:39:00,
2013-05-29 10:49:00,78.0,69.9,29.76,South,188,7.0,14.0,76,0.00,SCT,,0.00,WeatherDisplay:10.37,2013-05-29 15:49:00,
2013-05-29 10:54:00,78.3,70.5,29.76,South,186,7.0,21.0,77,0.00,SCT,,0.00,WeatherDisplay:10.37,2013-05-29 15:54:00,
2013-05-29 10:59:00,78.2,69.7,29.75,South,170,9.0,19.0,75,0.00,SCT,,0.00,WeatherDisplay:10.37,2013-05-29 15:59:00,
2013-05-29 11:04:00,77.9,69.0,29.76,South,191,9.0,20.0,74,0.00,CLR,,0.00,WeatherDisplay:10.37,2013-05-29 16:04:00,
2013-05-29 11:09:00,77.5,68.9,29.76,South,184,7.0,15.0,75,0.00,CLR,,0.00,WeatherDisplay:10.37,2013-05-29 16:09:00,
2013-05-29 11:14:00,77.0,68.9,29.75,South,184,5.0,18.0,76,0.00,CLR,,0.00,WeatherDisplay:10.37,2013-05-29 16:14:00,
2013-05-29 11:19:00,76.7,68.6,29.75,South,183,8.0,23.0,76,0.00,CLR,,0.00,WeatherDisplay:10.37,2013-05-29 16:19:00,
2013-05-29 11:29:00,77.0,69.2,29.75,SSE,163,8.0,21.0,77,0.00,CLR,,0.00,WeatherDisplay:10.37,2013-05-29 16:29:00,
2013-05-29 11:34:00,77.0,69.2,29.75,SSE,163,8.0,21.0,77,0.00,CLR,,0.00,WeatherDisplay:10.37,2013-05-29 16:34:00,
2013-05-29 11:39:00,77.2,69.4,29.75,SSE,166,7.0,15.0,77,0.00,CLR,,0.00,WeatherDisplay:10.37,2013-05-29 16:39:00,
2013-05-29 11:44:00,77.2,68.7,29.75,SSE,166,9.0,20.0,75,0.00,CLR,,0.00,WeatherDisplay:10.37,2013-05-29 16:44:00,
2013-05-29 11:49:00,77.0,68.9,29.75,South,181,8.0,21.0,76,0.00,CLR,,0.00,WeatherDisplay:10.37,2013-05-29 16:49:00,
2013-05-29 11:54:00,77.2,69.4,29.75,SSW,201,5.0,20.0,77,0.00,CLR,,0.00,WeatherDisplay:10.37,2013-05-29 16:54:00,
2013-05-29 12:04:00,78.3,69.7,29.75,South,177,7.0,29.0,75,0.00,SCT,,0.00,WeatherDisplay:10.37,2013-05-29 17:04:00,
2013-05-29 12:09:00,79.1,69.7,29.76,South,181,9.0,24.0,73,0.00,SCT,,0.00,WeatherDisplay:10.37,2013-05-29 17:09:00,
2013-05-29 12:19:00,79.6,69.8,29.76,South,180,10.0,25.0,72,0.00,SCT,,0.00,WeatherDisplay:10.37,2013-05-29 17:19:00,
2013-05-29 12:29:00,79.6,68.9,29.76,SW,227,8.0,25.0,70,0.00,SCT,,0.00,WeatherDisplay:10.37,2013-05-29 17:29:00,
2013-05-29 12:34:00,79.4,68.7,29.76,SW,216,9.0,20.0,70,0.00,SCT,,0.00,WeatherDisplay:10.37,2013-05-29 17:34:00,
2013-05-29 12:39:00,78.8,68.6,29.76,SSW,207,7.0,21.0,71,0.00,SCT,,0.00,WeatherDisplay:10.37,2013-05-29 17:39:00,
2013-05-29 12:49:00,78.2,68.4,29.77,SSW,206,7.0,20.0,72,0.00,SCT,,0.00,WeatherDisplay:10.37,2013-05-29 17:49:00,
2013-05-29 12:54:00,78.0,68.6,29.76,SSW,203,5.0,12.0,73,0.00,SCT,,0.00,WeatherDisplay:10.37,2013-05-29 17:54:00,
2013-05-29 12:59:00,77.7,68.4,29.77,SSW,202,5.0,19.0,73,0.00,SCT,,0.00,WeatherDisplay:10.37,2013-05-29 17:59:00,
2013-05-29 13:09:00,77.6,69.1,29.76,SSW,213,6.0,15.0,75,0.00,SCT,,0.00,WeatherDisplay:10.37,2013-05-29 18:09:00,
2013-05-29 13:19:00,77.2,67.9,29.77,South,178,10.0,21.0,73,0.00,OVC,,0.00,WeatherDisplay:10.37,2013-05-29 18:19:00,
2013-05-29 13:29:00,76.8,67.9,29.77,South,184,8.0,23.0,74,0.00,OVC,,0.00,WeatherDisplay:10.37,2013-05-29 18:29:00,
2013-05-29 13:39:00,76.6,68.0,29.77,South,190,9.0,18.0,75,0.00,OVC,,0.00,WeatherDisplay:10.37,2013-05-29 18:39:00,
2013-05-29 13:49:00,76.5,68.0,29.76,SW,217,6.0,13.0,75,0.00,OVC,,0.00,WeatherDisplay:10.37,2013-05-29 18:49:00,
2013-05-29 13:54:00,76.7,68.1,29.76,SSW,202,5.0,13.0,75,0.00,OVC,,0.00,WeatherDisplay:10.37,2013-05-29 18:54:00,
2013-05-29 14:04:00,77.0,68.5,29.76,SSW,207,7.0,21.0,75,0.00,OVC,,0.00,WeatherDisplay:10.37,2013-05-29 19:04:00,
2013-05-29 14:09:00,77.3,68.8,29.76,SSW,198,7.0,25.0,75,0.00,OVC,,0.00,WeatherDisplay:10.37,2013-05-29 19:09:00,
2013-05-29 14:19:00,77.5,69.0,29.76,SSW,201,3.0,19.0,75,0.00,OVC,,0.00,WeatherDisplay:10.37,2013-05-29 19:19:00,
2013-05-29 14:29:00,77.9,69.3,29.75,SSW,193,6.0,21.0,75,0.00,OVC,,0.00,WeatherDisplay:10.37,2013-05-29 19:29:00,
2013-05-29 14:39:00,78.6,69.2,29.75,SSW,192,8.0,21.0,73,0.00,OVC,,0.00,WeatherDisplay:10.37,2013-05-29 19:39:00,
2013-05-29 14:44:00,78.8,69.0,29.75,South,186,6.0,16.0,72,0.00,OVC,,0.00,WeatherDisplay:10.37,2013-05-29 19:44:00,
2013-05-29 14:49:00,79.0,69.6,29.75,South,190,6.0,21.0,73,0.00,OVC,,0.00,WeatherDisplay:10.37,2013-05-29 19:49:00,
2013-05-29 14:54:00,78.8,69.4,29.75,SSW,194,5.0,16.0,73,0.00,OVC,,0.00,WeatherDisplay:10.37,2013-05-29 19:54:00,
2013-05-29 14:59:00,78.6,68.8,29.75,SSW,193,8.0,19.0,72,0.00,OVC,,0.00,WeatherDisplay:10.37,2013-05-29 19:59:00,
2013-05-29 15:04:00,78.6,69.6,29.74,SSW,197,5.0,19.0,74,0.00,BKN,,0.00,WeatherDisplay:10.37,2013-05-29 20:04:00,
2013-05-29 15:14:00,78.8,69.4,29.74,South,169,7.0,16.0,73,0.00,BKN,,0.00,WeatherDisplay:10.37,2013-05-29 20:14:00,
2013-05-29 15:19:00,79.4,70.8,29.74,SSE,154,6.0,19.0,75,0.00,BKN,,0.00,WeatherDisplay:10.37,2013-05-29 20:19:00,
2013-05-29 15:24:00,79.5,69.7,29.74,SE,146,8.0,20.0,72,0.00,BKN,,0.00,WeatherDisplay:10.37,2013-05-29 20:24:00,
2013-05-29 15:29:00,79.1,68.9,29.73,South,180,6.0,18.0,71,0.00,BKN,,0.00,WeatherDisplay:10.37,2013-05-29 20:29:00,
2013-05-29 15:34:00,78.8,68.6,29.73,SSW,196,7.0,21.0,71,0.00,BKN,,0.00,WeatherDisplay:10.37,2013-05-29 20:34:00,
2013-05-29 15:39:00,78.5,68.3,29.73,South,185,7.0,21.0,71,0.00,BKN,,0.00,WeatherDisplay:10.37,2013-05-29 20:39:00,
2013-05-29 15:49:00,77.9,67.7,29.73,South,188,8.0,23.0,71,0.00,BKN,,0.00,WeatherDisplay:10.37,2013-05-29 20:49:00,
2013-05-29 15:54:00,77.9,68.1,29.73,South,183,10.0,18.0,72,0.00,BKN,,0.00,WeatherDisplay:10.37,2013-05-29 20:54:00,
2013-05-29 15:59:00,77.9,68.5,29.73,SSW,198,7.0,19.0,73,0.00,BKN,,0.00,WeatherDisplay:10.37,2013-05-29 20:59:00,
2013-05-29 16:09:00,77.7,68.0,29.71,South,181,12.0,20.0,72,0.00,BKN,,0.00,WeatherDisplay:10.37,2013-05-29 21:09:00,
2013-05-29 16:19:00,77.7,68.4,29.71,SSE,164,13.0,38.0,73,0.00,OVC,,0.00,WeatherDisplay:10.37,2013-05-29 21:19:00,
2013-05-29 16:24:00,77.5,67.8,29.70,SSE,167,12.0,38.0,72,0.00,OVC,,0.00,WeatherDisplay:10.37,2013-05-29 21:24:00,
2013-05-29 16:29:00,77.3,67.6,29.70,South,173,12.0,33.0,72,0.00,OVC,,0.00,WeatherDisplay:10.37,2013-05-29 21:29:00,
2013-05-29 16:39:00,77.4,68.0,29.70,South,172,5.0,20.0,73,0.00,OVC,,0.00,WeatherDisplay:10.37,2013-05-29 21:39:00,
2013-05-29 16:49:00,77.4,67.6,29.70,South,182,7.0,23.0,72,0.00,OVC,,0.00,WeatherDisplay:10.37,2013-05-29 21:49:00,
2013-05-29 16:59:00,77.2,67.9,29.69,South,182,9.0,25.0,73,0.00,OVC,,0.00,WeatherDisplay:10.37,2013-05-29 21:59:00,
2013-05-29 17:04:00,77.1,67.8,29.69,South,186,9.0,19.0,73,0.00,OVC,,0.00,WeatherDisplay:10.37,2013-05-29 22:04:00,
2013-05-29 17:09:00,77.0,67.7,29.70,SSE,168,10.0,19.0,73,0.00,OVC,,0.00,WeatherDisplay:10.37,2013-05-29 22:09:00,
2013-05-29 17:19:00,76.6,67.3,29.70,South,180,8.0,21.0,73,0.00,OVC,,0.00,WeatherDisplay:10.37,2013-05-29 22:19:00,
2013-05-29 17:29:00,76.7,67.4,29.69,South,179,7.0,19.0,73,0.00,OVC,,0.00,WeatherDisplay:10.37,2013-05-29 22:29:00,
2013-05-29 17:39:00,76.6,67.7,29.69,South,182,10.0,20.0,74,0.00,OVC,,0.00,WeatherDisplay:10.37,2013-05-29 22:39:00,
2013-05-29 17:49:00,76.3,66.6,29.69,South,176,12.0,25.0,72,0.00,OVC,,0.00,WeatherDisplay:10.37,2013-05-29 22:49:00,
2013-05-29 17:59:00,76.5,66.8,29.68,SSW,205,6.0,14.0,72,0.00,OVC,,0.00,WeatherDisplay:10.37,2013-05-29 22:59:00,
2013-05-29 18:04:00,76.3,66.6,29.67,South,187,9.0,21.0,72,0.00,OVC,,0.00,WeatherDisplay:10.37,2013-05-29 23:04:00,
2013-05-29 18:09:00,76.3,66.6,29.66,SSE,168,8.0,21.0,72,0.00,OVC,,0.00,WeatherDisplay:10.37,2013-05-29 23:09:00,
2013-05-29 18:19:00,76.3,67.0,29.65,SSE,153,5.0,25.0,73,0.00,OVC,,0.00,WeatherDisplay:10.37,2013-05-29 23:19:00,
2013-05-29 18:24:00,76.3,67.0,29.65,SSE,162,7.0,16.0,73,0.00,OVC,,0.00,WeatherDisplay:10.37,2013-05-29 23:24:00,
2013-05-29 18:29:00,76.5,67.2,29.65,SE,138,7.0,16.0,73,0.00,OVC,,0.00,WeatherDisplay:10.37,2013-05-29 23:29:00,
2013-05-29 18:34:00,76.6,67.3,29.65,ESE,120,7.0,19.0,73,0.00,OVC,,0.00,WeatherDisplay:10.37,2013-05-29 23:34:00,
2013-05-29 18:44:00,76.7,66.9,29.65,SSE,167,7.0,19.0,72,0.00,OVC,,0.00,WeatherDisplay:10.37,2013-05-29 23:44:00,
2013-05-29 18:49:00,76.6,66.9,29.66,SSE,159,6.0,13.0,72,0.00,OVC,,0.00,WeatherDisplay:10.37,2013-05-29 23:49:00,
2013-05-29 18:54:00,76.6,66.9,29.65,SSE,161,7.0,18.0,72,0.00,OVC,,0.00,WeatherDisplay:10.37,2013-05-29 23:54:00,
2013-05-29 19:04:00,76.5,67.6,29.64,South,172,7.0,16.0,74,0.00,BKN,,0.00,WeatherDisplay:10.37,2013-05-30 00:04:00,
2013-05-29 19:09:00,76.3,67.0,29.65,SSE,166,9.0,21.0,73,0.00,BKN,,0.00,WeatherDisplay:10.37,2013-05-30 00:09:00,
2013-05-29 19:19:00,76.5,66.8,29.66,SSW,197,6.0,14.0,72,0.00,BKN,,0.00,WeatherDisplay:10.37,2013-05-30 00:19:00,
2013-05-29 19:24:00,76.5,66.8,29.67,SSW,194,8.0,18.0,72,0.00,BKN,,0.00,WeatherDisplay:10.37,2013-05-30 00:24:00,
2013-05-29 19:29:00,76.5,66.8,29.67,SSW,194,5.0,16.0,72,0.00,BKN,,0.00,WeatherDisplay:10.37,2013-05-30 00:29:00,
2013-05-29 19:39:00,76.5,66.8,29.67,SSW,202,5.0,15.0,72,0.00,BKN,,0.00,WeatherDisplay:10.37,2013-05-30 00:39:00,
2013-05-29 19:44:00,76.5,66.8,29.67,SSW,194,8.0,23.0,72,0.00,BKN,,0.00,WeatherDisplay:10.37,2013-05-30 00:44:00,
2013-05-29 19:49:00,76.6,66.9,29.68,South,190,7.0,23.0,72,0.00,BKN,,0.00,WeatherDisplay:10.37,2013-05-30 00:49:00,
2013-05-29 19:59:00,76.5,66.8,29.69,SSW,195,3.0,16.0,72,0.00,BKN,,0.00,WeatherDisplay:10.37,2013-05-30 00:59:00,
2013-05-29 20:04:00,76.5,67.2,29.69,South,177,6.0,15.0,73,0.00,BKN,,0.00,WeatherDisplay:10.37,2013-05-30 01:04:00,
2013-05-29 20:09:00,76.3,67.0,29.69,South,182,6.0,13.0,73,0.00,BKN,,0.00,WeatherDisplay:10.37,2013-05-30 01:09:00,
2013-05-29 20:19:00,76.1,66.8,29.69,South,190,6.0,14.0,73,0.00,OVC,,0.00,WeatherDisplay:10.37,2013-05-30 01:19:00,
2013-05-29 20:24:00,76.1,67.2,29.68,South,186,6.0,19.0,74,0.00,OVC,,0.00,WeatherDisplay:10.37,2013-05-30 01:24:00,
2013-05-29 20:29:00,75.9,67.0,29.69,South,184,5.0,13.0,74,0.00,OVC,,0.00,WeatherDisplay:10.37,2013-05-30 01:29:00,
2013-05-29 20:39:00,75.9,67.4,29.69,SSE,155,3.0,10.0,75,0.00,OVC,,0.00,WeatherDisplay:10.37,2013-05-30 01:39:00,
2013-05-29 20:44:00,75.8,67.3,29.69,South,174,5.0,16.0,75,0.00,OVC,,0.00,WeatherDisplay:10.37,2013-05-30 01:44:00,
2013-05-29 20:49:00,75.6,67.1,29.70,SSW,197,6.0,13.0,75,0.00,OVC,,0.00,WeatherDisplay:10.37,2013-05-30 01:49:00,
2013-05-29 20:59:00,75.7,67.2,29.70,SSE,160,6.0,12.0,75,0.00,OVC,,0.00,WeatherDisplay:10.37,2013-05-30 01:59:00,
2013-05-29 21:04:00,75.8,67.3,29.70,South,170,7.0,15.0,75,0.00,OVC,,0.00,WeatherDisplay:10.37,2013-05-30 02:04:00,
2013-05-29 21:09:00,75.8,67.3,29.71,SSE,168,3.0,15.0,75,0.00,OVC,,0.00,WeatherDisplay:10.37,2013-05-30 02:09:00,
2013-05-29 21:19:00,75.6,67.1,29.70,SSE,167,3.0,10.0,75,0.00,OVC,,0.00,WeatherDisplay:10.37,2013-05-30 02:19:00,
2013-05-29 21:29:00,75.6,67.1,29.70,South,183,3.0,12.0,75,0.00,OVC,,0.00,WeatherDisplay:10.37,2013-05-30 02:29:00,
2013-05-29 21:39:00,75.4,67.3,29.70,ESE,114,5.0,8.0,76,0.00,OVC,,0.00,WeatherDisplay:10.37,2013-05-30 02:39:00,
2013-05-29 21:44:00,75.4,67.3,29.69,SE,139,1.0,13.0,76,0.00,OVC,,0.00,WeatherDisplay:10.37,2013-05-30 02:44:00,
2013-05-29 21:49:00,75.2,67.5,29.69,SE,132,5.0,12.0,77,0.00,OVC,,0.00,WeatherDisplay:10.37,2013-05-30 02:49:00,
2013-05-29 21:59:00,75.1,67.4,29.69,SE,131,3.0,10.0,77,0.00,OVC,,0.00,WeatherDisplay:10.37,2013-05-30 02:59:00,
2013-05-29 22:04:00,75.0,67.3,29.69,SE,129,6.0,13.0,77,0.00,OVC,,0.00,WeatherDisplay:10.37,2013-05-30 03:04:00,
2013-05-29 22:09:00,75.1,67.7,29.68,SE,131,6.0,13.0,78,0.00,OVC,,0.00,WeatherDisplay:10.37,2013-05-30 03:09:00,
2013-05-29 22:19:00,75.0,67.7,29.68,East,97,5.0,14.0,78,0.00,OVC,,0.00,WeatherDisplay:10.37,2013-05-30 03:19:00,
2013-05-29 22:24:00,74.9,67.2,29.68,ESE,119,3.0,11.0,77,0.00,OVC,,0.00,WeatherDisplay:10.37,2013-05-30 03:24:00,
2013-05-29 22:29:00,74.9,67.9,29.69,SE,133,7.0,16.0,79,0.01,RA,,0.01,WeatherDisplay:10.37,2013-05-30 03:29:00,
2013-05-29 22:39:00,73.4,68.3,29.68,SSE,153,7.0,14.0,84,0.00,RA,,0.06,WeatherDisplay:10.37,2013-05-30 03:39:00,
2013-05-29 22:44:00,72.7,68.3,29.68,SE,135,2.0,9.0,86,0.01,RA,,0.07,WeatherDisplay:10.37,2013-05-30 03:44:00,
2013-05-29 22:49:00,72.2,68.1,29.68,SE,125,5.0,19.0,87,0.00,RA,,0.07,WeatherDisplay:10.37,2013-05-30 03:49:00,
2013-05-29 22:59:00,71.5,68.1,29.68,ESE,120,5.0,12.0,89,0.00,OVC,,0.07,WeatherDisplay:10.37,2013-05-30 03:59:00,
2013-05-29 23:04:00,71.3,68.2,29.68,SE,124,6.0,19.0,90,0.00,BKN,,0.07,WeatherDisplay:10.37,2013-05-30 04:04:00,
2013-05-29 23:09:00,71.0,68.2,29.69,SE,144,6.0,20.0,91,0.00,BKN,,0.07,WeatherDisplay:10.37,2013-05-30 04:09:00,
2013-05-29 23:14:00,70.6,67.8,29.69,South,174,5.0,19.0,91,0.00,BKN,,0.07,WeatherDisplay:10.37,2013-05-30 04:14:00,
2013-05-29 23:24:00,69.2,66.1,29.69,South,190,9.0,30.0,90,0.01,RA,,0.09,WeatherDisplay:10.37,2013-05-30 04:24:00,
2013-05-29 23:29:00,68.3,65.6,29.69,SSW,196,6.0,16.0,91,0.01,RA,,0.10,WeatherDisplay:10.37,2013-05-30 04:29:00,
2013-05-29 23:39:00,66.9,64.5,29.68,SSE,158,7.0,25.0,92,0.01,RA,,0.12,WeatherDisplay:10.37,2013-05-30 04:39:00,
2013-05-29 23:49:00,65.7,63.3,29.67,South,173,5.0,14.0,92,0.00,RA,,0.13,WeatherDisplay:10.37,2013-05-30 04:49:00,
2013-05-29 23:59:00,64.9,63.1,29.67,SSE,164,6.0,13.0,94,0.00,RA,,0.00,WeatherDisplay:10.37,2013-05-30 04:59:00,